Location: Unspecified
(0.0000°N, 0.0000°E)
Time: 16:43:14
(UTC+00:00)

A-11 Canister half - All Passes

Search period start: 18 June 2019 00:00
Search period end: 28 June 2019 00:00
Orbit: 1516 x 1684 km, 47.2° (Epoch: 17 June)

Date Brightness Start Highest point End Pass type
(mag) Time Alt. Az. Time Alt. Az. Time Alt. Az.
18 Jun - 06:38:13 10° S 06:45:22 21° SE 06:52:26 10° E daylight
18 Jun - 08:40:19 10° SW 08:50:32 83° NW 09:00:34 10° NE daylight
18 Jun - 10:50:05 10° W 10:55:45 16° NW 11:01:21 10° N daylight
18 Jun - 19:27:47 10° NNW 19:36:23 43° NE 19:45:02 10° ESE visible
18 Jun - 21:32:40 10° WNW 21:41:02 39° SW 21:49:36 10° SSE visible
19 Jun - 06:15:42 10° S 06:22:21 19° SE 06:28:57 10° E daylight
19 Jun - 08:17:21 10° SW 08:27:36 89° NW 08:37:39 10° NE daylight
19 Jun - 10:26:27 10° W 10:32:44 18° NW 10:38:58 10° N daylight
19 Jun - 19:05:03 10° NNW 19:13:29 39° NE 19:21:56 10° ESE visible
19 Jun - 21:09:35 10° WNW 21:18:08 42° SW 21:26:51 10° SSE visible
20 Jun - 05:53:15 10° S 05:59:20 17° SE 06:05:24 10° E daylight
20 Jun - 07:54:25 10° SW 08:04:39 85° SE 08:14:44 10° NE daylight
20 Jun - 10:02:55 10° W 10:09:44 20° NW 10:16:31 10° N daylight
20 Jun - 18:42:20 10° NNW 18:50:34 36° NE 18:58:48 10° ESE visible
20 Jun - 20:46:32 10° WNW 20:55:13 46° SW 21:04:05 10° SSE visible
21 Jun - 05:30:52 10° SSE 05:36:19 16° SE 05:41:44 10° ESE visible
21 Jun - 07:31:31 10° SW 07:41:42 79° SE 07:51:47 10° NE daylight
21 Jun - 09:39:27 10° W 09:46:45 22° NW 09:54:00 10° N daylight
21 Jun - 18:19:39 10° NNW 18:27:40 33° NE 18:35:40 10° ESE visible
21 Jun - 20:23:30 10° WNW 20:32:19 51° SW 20:41:18 10° SSE visible
22 Jun - 05:08:38 10° SSE 05:13:17 14° SE 05:17:55 10° ESE visible
22 Jun - 07:08:37 10° SSW 07:18:45 73° SE 07:28:49 10° NE daylight
22 Jun - 09:16:03 10° W 09:23:46 25° NW 09:31:25 10° N daylight
22 Jun - 17:56:58 10° N 18:04:44 30° NE 18:12:28 10° ESE daylight
22 Jun - 20:00:29 10° NW 20:09:25 55° SW 20:18:30 10° SSE visible
23 Jun - 04:46:36 10° SSE 04:50:14 12° SE 04:53:52 10° ESE visible
23 Jun - 06:45:43 10° SSW 06:55:49 68° SE 07:05:50 10° NE daylight
23 Jun - 08:52:43 10° WSW 09:00:47 27° NW 09:08:48 10° N daylight
23 Jun - 17:34:20 10° N 17:41:49 27° NE 17:49:15 10° ESE daylight
23 Jun - 19:37:29 10° NW 19:46:32 60° SW 19:55:41 10° SSE visible
24 Jun - 04:25:05 10° SSE 04:27:11 11° SE 04:29:18 10° SE visible
24 Jun - 06:22:51 10° SSW 06:32:52 62° SE 06:42:49 10° NE daylight
24 Jun - 08:29:25 10° WSW 08:37:48 30° NW 08:46:09 10° N daylight
24 Jun - 17:11:43 10° N 17:18:53 25° NE 17:25:59 10° E daylight
24 Jun - 19:14:30 10° NW 19:23:38 66° SW 19:32:51 10° SSE visible
24 Jun - 21:27:30 10° SW 21:29:02 10° SW 21:30:33 10° SSW visible
25 Jun - 06:00:01 10° SSW 06:09:55 58° SE 06:19:47 10° NE daylight
25 Jun - 08:06:09 10° WSW 08:14:50 32° NW 08:23:29 10° N daylight
25 Jun - 16:49:08 10° N 16:55:56 22° NE 17:02:41 10° E daylight
25 Jun - 18:51:32 10° NW 19:00:45 72° SW 19:10:01 10° SSE visible
25 Jun - 21:02:53 10° WSW 21:06:01 12° SW 21:09:10 10° SSW visible
26 Jun - 05:37:11 10° SSW 05:46:58 53° SE 05:56:43 10° NE visible
26 Jun - 07:42:57 10° WSW 07:51:53 35° NW 08:00:47 10° NNE daylight
26 Jun - 16:26:35 10° N 16:33:00 20° NE 16:39:19 10° E daylight
26 Jun - 18:28:36 10° NW 18:37:51 78° SW 18:47:08 10° SE visible
26 Jun - 20:38:55 10° WSW 20:43:02 13° SW 20:47:09 10° SSW visible
27 Jun - 05:14:23 10° SSW 05:24:01 49° SE 05:33:38 10° ENE visible
27 Jun - 07:19:45 10° WSW 07:28:54 39° NW 07:38:02 10° NNE daylight
27 Jun - 16:04:06 10° N 16:10:02 18° NE 16:15:54 10° E daylight
27 Jun - 18:05:41 10° NW 18:14:58 84° SW 18:24:16 10° SE daylight
27 Jun - 20:15:12 10° WSW 20:20:02 15° SW 20:24:56 10° SSW visible
